This is the latest recevied weather packets stored in our database for station/object VK3BKO-13. If no packets are shown the sender has not sent any weather packets the latest 10 day(s).
| Time | Temp. | Humidity | Pressure | Rain* | Wind** | Luminosity | Snow |
|---|---|---|---|---|---|---|---|
| 1777544224 | 15.56° C | 72% | 1024.4 hPa | 0 mm | - | 0 W/m² | - |
| 1777543324 | 16.11° C | 70% | 1024.4 hPa | 0 mm | - | 0 W/m² | - |
| 1777542423 | 16.11° C | 69% | 1024.8 hPa | 0 mm | - | 0 W/m² | - |
| 1777541525 | 17.22° C | 67% | 1024.8 hPa | 0 mm | - | 0 W/m² | - |
| 1777540624 | 17.78° C | 67% | 1024.4 hPa | 0 mm | - | 0 W/m² | - |
| 1777539731 | 17.78° C | 67% | 1024.4 hPa | 0 mm | - | 0 W/m² | - |
| 1777538823 | 18.33° C | 66% | 1024.1 hPa | 0 mm | - | 0 W/m² | - |
| 1777537923 | 18.33° C | 64% | 1024.1 hPa | 0 mm | - | 0 W/m² | - |
| 1777537023 | 18.89° C | 59% | 1024.1 hPa | 0 mm | - | 0 W/m² | - |
| 1777536124 | 20° C | 58% | 1024.1 hPa | 0 mm | - | 0 W/m² | - |
| 1777535224 | 20.56° C | 54% | 1023.7 hPa | 0 mm | - | 0 W/m² | - |
| 1777534324 | 21.67° C | 51% | 1023.7 hPa | 0 mm | - | 3 W/m² | - |
| 1777533423 | 22.78° C | 47% | 1023.7 hPa | 0 mm | - | 10 W/m² | - |
| 1777532525 | 23.33° C | 46% | 1023.7 hPa | 0 mm | - | 22 W/m² | - |
| 1777531624 | 23.89° C | 45% | 1023.7 hPa | 0 mm | - | 42 W/m² | - |
| 1777530724 | 23.89° C | 44% | 1023.7 hPa | 0 mm | - | 58 W/m² | - |
| 1777529824 | 24.44° C | 43% | 1023.7 hPa | 0 mm | - | 76 W/m² | - |
| 1777528924 | 24.44° C | 41% | 1023.7 hPa | 0 mm | - | 88 W/m² | - |
| 1777528023 | 24.44° C | 42% | 1023.7 hPa | 0 mm | - | 117 W/m² | - |
| 1777527123 | 24.44° C | 42% | 1023.7 hPa | 0 mm | - | 109 W/m² | - |
| 1777526224 | 25.56° C | 40% | 1023.7 hPa | 0 mm | - | 123 W/m² | - |
| 1777525324 | 26.11° C | 41% | 1023.7 hPa | 0 mm | - | 224 W/m² | - |
| 1777524424 | 26.11° C | 41% | 1024.1 hPa | 0 mm | - | 243 W/m² | - |
| 1777523524 | 25.56° C | 42% | 1023.7 hPa | 0 mm | - | 250 W/m² | - |
| 1777522624 | 25.56° C | 44% | 1024.1 hPa | 0 mm | - | 289 W/m² | - |
* Rain latest hour (hover to see other rain measurements)
** Current wind speed in m/s (hover to see current wind gust speed)